This is the latest recevied weather packets stored in our database for station/object SA7AHC. If no packets are shown the sender has not sent any weather packets the latest 10 day(s).
| Time | Temp. | Humidity | Pressure | Rain* | Wind** | Luminosity | Snow |
|---|---|---|---|---|---|---|---|
| 1777758217 | 13.89° C | 55% | 1012.8 hPa | 0 mm | - | 0 W/m² | - |
| 1777757614 | 13.33° C | 56% | 1012.8 hPa | 0 mm | - | 0 W/m² | - |
| 1777757016 | 13.33° C | 56% | 1012.8 hPa | 0 mm | - | 0 W/m² | - |
| 1777756417 | 13.33° C | 56% | 1012.9 hPa | 0 mm | - | 0 W/m² | - |
| 1777755818 | 13.33° C | 55% | 1013.1 hPa | 0 mm | - | 0 W/m² | - |
| 1777755221 | 13.33° C | 54% | 1013.1 hPa | 0 mm | - | 0 W/m² | - |
| 1777754618 | 13.33° C | 55% | 1013.2 hPa | 0 mm | - | 0 W/m² | - |
| 1777754025 | 13.33° C | 54% | 1013.4 hPa | 0 mm | - | 0 W/m² | - |
| 1777753413 | 13.89° C | 52% | 1013.4 hPa | 0 mm | - | 0 W/m² | - |
| 1777752813 | 14.44° C | 51% | 1013.5 hPa | 0 mm | - | 0 W/m² | - |
| 1777752218 | 14.44° C | 51% | 1013.6 hPa | 0 mm | - | 0 W/m² | - |
| 1777751621 | 14.44° C | 51% | 1013.6 hPa | 0 mm | - | 0 W/m² | - |
| 1777751012 | 15° C | 48% | 1013.7 hPa | 0 mm | - | 0 W/m² | - |
| 1777750412 | 16.11° C | 46% | 1013.7 hPa | 0 mm | - | 0 W/m² | - |
| 1777749812 | 16.67° C | 44% | 1013.7 hPa | 0 mm | - | 0 W/m² | - |
| 1777749218 | 17.22° C | 43% | 1013.7 hPa | 0 mm | - | 0 W/m² | - |
| 1777748612 | 17.78° C | 41% | 1013.6 hPa | 0 mm | - | 0 W/m² | - |
| 1777748016 | 17.78° C | 41% | 1013.6 hPa | 0 mm | - | 0 W/m² | - |
| 1777747415 | 18.33° C | 39% | 1013.6 hPa | 0 mm | - | 0 W/m² | - |
| 1777746815 | 18.89° C | 39% | 1013.7 hPa | 0 mm | - | 5 W/m² | - |
| 1777746219 | 19.44° C | 37% | 1013.7 hPa | 0 mm | - | 9 W/m² | - |
| 1777745615 | 19.44° C | 37% | 1013.9 hPa | 0 mm | - | 12 W/m² | - |
| 1777745014 | 19.44° C | 36% | 1013.5 hPa | 0 mm | - | 16 W/m² | - |
| 1777744412 | 20° C | 36% | 1013.5 hPa | 0 mm | - | 18 W/m² | - |
| 1777743817 | 20.56° C | 35% | 1013.5 hPa | 0 mm | - | 23 W/m² | - |
* Rain latest hour (hover to see other rain measurements)
** Current wind speed in m/s (hover to see current wind gust speed)